Saint Martin Island, Sint Maarten

1:56 PM AST on January 16, 2017 (GMT -0400)
Princess Juliana International

Weather History for TNCM - August, 2013

Change the Weather History Date:

Monday, August 26, 2013

  Actual Average Record
Temperature  
Mean Temperature 82 °F -  
Max Temperature 87 °F 87 °F 91 °F (2016)
Min Temperature 78 °F 78 °F 77 °F (2006)
Cooling Degree Days 18    
Growing Degree Days 32 (Base 50)    
Moisture  
Dew Point 75 °F    
Average Humidity 75    
Maximum Humidity 89    
Minimum Humidity 61    
Precipitation  
Precipitation 0.16 in 0.17 in - ()
Sea Level Pressure  
Sea Level Pressure 29.96 in    
Wind  
Wind Speed 10 mph ()    
Max Wind Speed 15 mph    
Max Gust Speed 25 mph    
Visibility 8.5 miles    
Events Rain    
Averages and records for this station are not official NWS values.
T = Trace of Precipitation, MM = Missing Value Source: Averaged Metar Reports

Daily Weather History Graph

Daily Weather History Graph

Search for Another Location

Airport or City:

Trip Planner

Search our weather history database for the weather conditions in past years. The results will help you decide how hot, cold, wet, or windy it might be!

Date:

Astronomy

Aug. 26, 2013 Rise Set
Actual Time 5:57 AM AST 6:30 PM AST
Civil Twilight 5:34 AM AST 6:53 PM AST
Nautical Twilight 5:08 AM AST 7:19 PM AST
Astronomical Twilight 4:42 AM AST 7:45 PM AST
Moon 10:37 PM AST (8/26) 10:57 AM AST (8/26)
Length of Visible Light 13h 18m
Length of Day
12h 33m
Waning Gibbous, 67% of the Moon is Illuminated
Aug 26
Waning Gibbous
Aug 28
Last Quarter
Sep 5
New
Sep 12
First Quarter
Sep 19
Full

Hourly Weather History & Observations

Time (AST) Temp. Heat Index Dew Point Humidity Pressure Visibility Wind Dir Wind Speed Gust Speed Precip Events Conditions
12:00 AM 82.4 °F 89.5 °F 75.2 °F 79% 29.98 in 6.2 mi East 12.7 mph - N/A   Mostly Cloudy
1:00 AM 82.4 °F 88.2 °F 73.4 °F 74% 29.98 in 6.2 mi East 15.0 mph - N/A   Scattered Clouds
2:00 AM 82 °F - 74 °F 71% 29.96 in 19 mi East 11.5 mph - -   Partly Cloudy
2:00 AM 82.4 °F 89.5 °F 75.2 °F 79% 29.95 in 6.2 mi East 11.5 mph - N/A   Scattered Clouds
3:00 AM 80.6 °F 85.4 °F 73.4 °F 79% 29.92 in 6.2 mi East 9.2 mph - N/A   Partly Cloudy
4:00 AM 82.4 °F 88.2 °F 73.4 °F 74% 29.95 in 6.2 mi East 10.4 mph - N/A   Partly Cloudy
5:00 AM 82 °F - 75 °F 73% 29.95 in 19 mi East 9.2 mph - -   Partly Cloudy
5:00 AM 82.4 °F 89.5 °F 75.2 °F 79% 29.95 in 6.2 mi East 9.2 mph - N/A   Scattered Clouds
6:00 AM 78.8 °F - 75.2 °F 89% 29.95 in 5.0 mi East 6.9 mph - N/A Rain Light Rain Showers
7:00 AM 80.6 °F 87.1 °F 77.0 °F 89% 29.95 in 6.2 mi ENE 5.8 mph - N/A   Mostly Cloudy
8:00 AM 83 °F - 76 °F 74% 29.99 in 19 mi East 9.2 mph - -   Partly Cloudy
8:00 AM 82.4 °F 90.9 °F 77.0 °F 84% 29.98 in 6.2 mi East 9.2 mph - N/A   Scattered Clouds
9:00 AM 84.2 °F 92.3 °F 75.2 °F 74% 29.98 in 6.2 mi East 10.4 mph - N/A   Partly Cloudy
10:00 AM 86.0 °F 95.1 °F 75.2 °F 70% 29.98 in 6.2 mi East 11.5 mph - N/A   Partly Cloudy
11:00 AM 87 °F - 76 °F 61% 30.00 in 16 mi East 11.5 mph - -   Partly Cloudy
11:00 AM 86.0 °F 95.1 °F 75.2 °F 70% 29.99 in 6.2 mi East 11.5 mph 25.3 mph N/A   Partly Cloudy
12:00 PM 82.4 °F 89.5 °F 75.2 °F 79% 29.98 in 5.0 mi ESE 11.5 mph - N/A   Partly Cloudy
1:00 PM 84.2 °F 94.1 °F 77.0 °F 79% 29.95 in 6.2 mi East 8.1 mph - N/A   Partly Cloudy
2:00 PM 87 °F - 76 °F 63% 29.96 in 16 mi ESE 10.4 mph - -   Partly Cloudy
2:00 PM 86.0 °F 96.9 °F 77.0 °F 74% 29.95 in 6.2 mi ESE 10.4 mph - N/A   Scattered Clouds
3:00 PM 84.2 °F 92.3 °F 75.2 °F 74% 29.92 in 5.0 mi East 10.4 mph - N/A Rain Light Rain Showers
4:00 PM 82.4 °F 89.5 °F 75.2 °F 79% 29.92 in 6.2 mi SE 9.2 mph - N/A Rain Light Rain Showers
5:00 PM 82 °F - 74 °F 72% 29.94 in 7 mi ESE 9.2 mph - - Rain Light Rain Showers
5:00 PM 82.4 °F 89.5 °F 75.2 °F 79% 29.92 in 6.2 mi ESE 9.2 mph - N/A Rain Light Rain Showers
6:00 PM 84.2 °F 92.3 °F 75.2 °F 74% 29.92 in 6.2 mi East 10.4 mph - N/A   Partly Cloudy
7:00 PM 84.2 °F 92.3 °F 75.2 °F 74% 29.92 in 6.2 mi East 10.4 mph - N/A   Scattered Clouds
8:00 PM 85 °F - 74 °F 64% 29.95 in 16 mi East 11.5 mph - -   Partly Cloudy
8:00 PM 84.2 °F 92.3 °F 75.2 °F 74% 29.95 in 6.2 mi East 10.4 mph - N/A   Partly Cloudy
9:00 PM 82.4 °F 89.5 °F 75.2 °F 79% 29.95 in 6.2 mi East 10.4 mph - N/A Rain Light Rain Showers
10:00 PM 82.4 °F 89.5 °F 75.2 °F 79% 29.95 in 6.2 mi East 11.5 mph - N/A   Partly Cloudy
11:00 PM 83 °F - 75 °F 70% 29.97 in 16 mi East 11.5 mph - -   Partly Cloudy
11:00 PM 82.4 °F 89.5 °F 75.2 °F 79% 29.95 in 6.2 mi East 11.5 mph - N/A   Partly Cloudy